TimeEST,TemperatureF,Dew PointF,Humidity,Sea Level PressureIn,VisibilityMPH,Wind Direction,Wind SpeedMPH,Gust SpeedMPH,PrecipitationIn,Events,Conditions,WindDirDegrees,DateUTC
12:54 AM,37.0,28.0,70,29.46,10.0,West,18.4,-,N/A,,Overcast,260,2012-12-22 05:54:00
1:54 AM,37.9,25.0,60,29.47,10.0,West,17.3,27.6,N/A,,Mostly Cloudy,260,2012-12-22 06:54:00
2:54 AM,37.0,27.0,67,29.49,10.0,West,25.3,29.9,N/A,,Overcast,260,2012-12-22 07:54:00
3:54 AM,37.0,27.0,67,29.50,10.0,West,13.8,-,N/A,,Overcast,260,2012-12-22 08:54:00
4:54 AM,39.0,24.1,55,29.52,10.0,West,19.6,25.3,N/A,,Overcast,270,2012-12-22 09:54:00
5:54 AM,39.9,21.9,49,29.56,10.0,WNW,11.5,28.8,N/A,,Overcast,290,2012-12-22 10:54:00
6:54 AM,39.9,21.0,47,29.59,10.0,WNW,17.3,26.5,N/A,,Overcast,290,2012-12-22 11:54:00
7:54 AM,39.9,19.9,45,29.62,10.0,West,12.7,24.2,N/A,,Overcast,280,2012-12-22 12:54:00
8:54 AM,41.0,21.9,47,29.65,10.0,West,21.9,28.8,N/A,,Mostly Cloudy,280,2012-12-22 13:54:00
9:54 AM,42.1,21.0,43,29.69,10.0,WNW,13.8,29.9,N/A,,Mostly Cloudy,290,2012-12-22 14:54:00
10:54 AM,42.1,21.0,43,29.70,10.0,WNW,25.3,35.7,N/A,,Mostly Cloudy,290,2012-12-22 15:54:00
11:54 AM,41.0,24.1,51,29.71,10.0,West,20.7,32.2,N/A,,Mostly Cloudy,270,2012-12-22 16:54:00
12:54 PM,41.0,21.9,47,29.72,10.0,West,17.3,29.9,N/A,,Mostly Cloudy,280,2012-12-22 17:54:00
1:54 PM,42.1,19.0,40,29.74,10.0,WNW,23.0,35.7,N/A,,Mostly Cloudy,290,2012-12-22 18:54:00
2:54 PM,42.1,18.0,38,29.76,10.0,WNW,31.1,41.4,N/A,,Mostly Cloudy,290,2012-12-22 19:54:00
3:54 PM,41.0,18.0,40,29.79,10.0,WNW,23.0,33.4,N/A,,Mostly Cloudy,290,2012-12-22 20:54:00
4:54 PM,39.9,18.0,41,29.83,10.0,WNW,20.7,38.0,N/A,,Scattered Clouds,290,2012-12-22 21:54:00
5:54 PM,39.0,19.0,45,29.86,10.0,WNW,16.1,34.5,N/A,,Scattered Clouds,300,2012-12-22 22:54:00
6:54 PM,37.9,19.0,47,29.88,10.0,WNW,16.1,25.3,N/A,,Partly Cloudy,290,2012-12-22 23:54:00
7:54 PM,37.9,19.9,48,29.90,10.0,WNW,17.3,25.3,N/A,,Scattered Clouds,290,2012-12-23 00:54:00
8:54 PM,37.9,19.9,48,29.91,10.0,WNW,15.0,26.5,N/A,,Partly Cloudy,290,2012-12-23 01:54:00
9:54 PM,36.0,19.9,52,29.93,10.0,West,13.8,-,N/A,,Partly Cloudy,280,2012-12-23 02:54:00
10:54 PM,36.0,21.0,55,29.94,10.0,West,11.5,-,N/A,,Partly Cloudy,270,2012-12-23 03:54:00
11:54 PM,36.0,19.9,52,29.96,10.0,West,13.8,-,N/A,,Mostly Cloudy,280,2012-12-23 04:54:00